DW1234 Weather Reports


time (UTC)temp
C
wind
direction
speed
KPH
gust
KPH
rain 1hr
cm
rain 24hr
cm
rain mn
cm
humidity
%
barometer
mb
20260510194754 23 232 11.3 27.4 0.00 0.00 0.00 31 1021.8
20260510194549 23 286 12.9 27.4 0.00 0.00 0.00 29 1021.0
20260510194246 24 229 9.7 27.4 0.00 0.00 0.00 34 1021.8
20260510193727 23 294 9.7 22.5 0.00 0.00 0.00 34 1021.9
20260510193254 23 277 9.7 22.5 0.00 0.00 0.00 30 1022.2
20260510193026 23 228 11.3 22.5 0.00 0.00 0.00 29 1021.3
20260510192743 23 224 6.4 24.1 0.00 0.00 0.00 32 1022.2
20260510192225 23 315 4.8 24.1 0.00 0.00 0.00 34 1022.2
20260510191737 22 19 12.9 27.4 0.00 0.00 0.00 31 1022.3
20260510191540 22 317 6.4 27.4 0.00 0.00 0.00 34 1021.5
20260510191250 23 315 8.0 27.4 0.00 0.00 0.00 31 1022.4
20260510190732 23 330 6.4 22.5 0.00 0.00 0.00 34 1022.5
20260510190245 22 257 12.9 29.0 0.00 0.00 0.00 33 1022.6
20260510190048 21 246 9.7 29.0 0.00 0.00 0.00 29 1021.8
20260510185729 22 259 14.5 29.0 0.00 0.00 0.00 29 1022.7
20260510185236 23 322 11.3 24.1 0.00 0.00 0.00 31 1022.7
20260510184807 23 253 14.5 24.1 0.00 0.00 0.00 32 1022.7
20260510184519 22 288 12.9 24.1 0.00 0.00 0.00 33 1022.0
20260510184231 22 317 14.5 24.1 0.00 0.00 0.00 34 1022.8
20260510183741 22 306 12.9 19.3 0.00 0.00 0.00 31 1022.8
20260510183224 22 284 4.8 24.1 0.00 0.00 0.00 32 1022.8
20260510183028 22 298 11.3 24.1 0.00 0.00 0.00 31 1022.1
20260510182735 22 281 14.5 24.1 0.00 0.00 0.00 30 1022.8
20260510182247 22 328 12.9 25.7 0.00 0.00 0.00 33 1022.9
20260510181731 21 275 12.9 25.7 0.00 0.00 0.00 31 1022.9
20260510181551 22 309 12.9 25.7 0.00 0.00 0.00 31 1022.1
20260510181238 22 314 16.1 29.0 0.00 0.00 0.00 31 1023.0
20260510180748 22 297 14.5 29.0 0.00 0.00 0.00 32 1023.0
20260510180231 22 315 12.9 24.1 0.00 0.00 0.00 33 1023.0
20260510180046 22 294 16.1 24.1 0.00 0.00 0.00 30 1022.3
20260510175745 22 315 9.7 22.5 0.00 0.00 0.00 32 1023.0
20260510175226 21 11 11.3 22.5 0.00 0.00 0.00 31 1023.0
20260510174737 21 271 12.9 25.7 0.00 0.00 0.00 33 1023.0
20260510174533 21 251 12.9 25.7 0.00 0.00 0.00 33 1022.3
20260510174222 21 299 17.7 29.0 0.00 0.00 0.00 31 1023.0
20260510173748 21 273 14.5 29.0 0.00 0.00 0.00 33 1023.0
20260510173239 21 5 11.3 29.0 0.00 0.00 0.00 29 1023.0
20260510173021 21 318 8.0 29.0 0.00 0.00 0.00 32 1022.2
20260510172752 21 355 12.9 29.0 0.00 0.00 0.00 27 1023.0
20260510172244 21 11 17.7 27.4 0.00 0.00 0.00 30 1023.0
20260510171727 21 301 9.7 20.9 0.00 0.00 0.00 32 1023.2
20260510171505 21 289 12.9 19.3 0.00 0.00 0.00 30 1022.5
20260510171301 20 256 9.7 16.1 0.00 0.00 0.00 32 1023.3
20260510170723 20 251 6.4 24.1 0.00 0.00 0.00 32 1023.4
20260510170228 20 276 16.1 24.1 0.00 0.00 0.00 33 1023.4
20260510170045 20 288 9.7 24.1 0.00 0.00 0.00 32 1022.7
20260510165740 20 252 4.8 12.9 0.00 0.00 0.00 34 1023.5
20260510165222 20 303 6.4 16.1 0.00 0.00 0.00 34 1023.6
20260510164733 20 275 4.8 16.1 0.00 0.00 0.00 35 1023.6
20260510164553 20 304 11.3 16.1 0.00 0.00 0.00 33 1022.9
20260510164247 20 271 12.9 16.1 0.00 0.00 0.00 34 1023.7
20260510163730 20 261 9.7 16.1 0.00 0.00 0.00 36 1023.7
20260510163300 19 201 6.4 11.3 0.00 0.00 0.00 34 1023.6
20260510163027 19 248 6.4 14.5 0.00 0.00 0.00 41 1022.9
20260510162724 19 241 4.8 14.5 0.00 0.00 0.00 36 1023.6
20260510162231 19 254 8.0 14.5 0.00 0.00 0.00 35 1023.6
20260510161740 18 228 3.2 14.5 0.00 0.00 0.00 34 1023.6
20260510161536 18 217 6.4 14.5 0.00 0.00 0.00 36 1022.8
20260510161225 18 194 8.0 14.5 0.00 0.00 0.00 32 1023.6
20260510160755 19 226 8.0 12.9 0.00 0.00 0.00 35 1023.5
20260510160247 19 215 4.8 12.9 0.00 0.00 0.00 36 1023.5
20260510160057 18 245 1.6 12.9 0.00 0.00 0.00 39 1022.8
20260510155738 19 249 4.8 12.9 0.00 0.00 0.00 36 1023.5
20260510155220 17 219 3.2 12.9 0.00 0.00 0.00 32 1023.5
20260510154728 18 223 6.4 12.9 0.00 0.00 0.00 35 1023.5
20260510154620 18 244 3.2 12.9 0.00 0.00 0.00 36 1022.8
20260510154300 18 224 4.8 12.9 0.00 0.00 0.00 35 1023.5
20260510153748 18 221 4.8 14.5 0.00 0.00 0.00 37 1023.6
20260510153232 17 192 9.7 14.5 0.00 0.00 0.00 35 1023.6
20260510153044 17 152 4.8 14.5 0.00 0.00 0.00 36 1022.8
20260510152802 17 148 3.2 14.5 0.00 0.00 0.00 38 1023.5
20260510152223 17 171 3.2 12.9 0.00 0.00 0.00 37 1023.5
20260510151730 17 173 6.4 12.9 0.00 0.00 0.00 34 1023.5
20260510151517 17 163 8.0 12.9 0.00 0.00 0.00 41 1022.8
20260510151244 17 210 4.8 12.9 0.00 0.00 0.00 44 1023.5
20260510150725 17 213 6.4 12.9 0.00 0.00 0.00 40 1023.5
20260510150257 17 226 4.8 11.3 0.00 0.00 0.00 39 1023.5
20260510150120 17 228 4.8 11.3 0.00 0.00 0.00 41 1022.8
20260510145743 17 169 6.4 11.3 0.00 0.00 0.00 39 1023.5
20260510145228 17 173 6.4 9.7 0.00 0.00 0.00 37 1023.5
20260510144738 16 173 6.4 9.7 0.00 0.00 0.00 39 1023.4
20260510144609 16 186 4.8 9.7 0.00 0.00 0.00 38 1022.7
20260510144222 16 198 3.2 9.7 0.00 0.00 0.00 43 1023.4
20260510143726 16 213 4.8 12.9 0.00 0.00 0.00 36 1023.3
20260510143238 16 160 8.0 12.9 0.00 0.00 0.00 36 1023.3
20260510143007 16 190 4.8 9.7 0.00 0.00 0.00 39 1022.5
20260510142721 16 145 4.8 9.7 0.00 0.00 0.00 43 1023.2
20260510142252 15 154 3.2 11.3 0.00 0.00 0.00 43 1023.1
20260510141742 15 136 8.0 9.7 0.00 0.00 0.00 41 1023.1
20260510141545 15 170 6.4 11.3 0.00 0.00 0.00 42 1022.3
20260510141228 14 240 3.2 9.7 0.00 0.00 0.00 41 1023.0
20260510140738 15 207 6.4 9.7 0.00 0.00 0.00 43 1022.9
20260510140247 14 151 4.8 12.9 0.00 0.00 0.00 42 1022.8
20260510140021 14 151 3.2 12.9 0.00 0.00 0.00 40 1022.0
20260510135757 14 151 6.4 12.9 0.00 0.00 0.00 46 1022.8
20260510135248 14 171 3.2 8.0 0.00 0.00 0.00 44 1022.9
20260510134733 14 171 3.2 8.0 0.00 0.00 0.00 48 1022.8
20260510134505 13 171 4.8 6.4 0.00 0.00 0.00 43 1022.0
20260510134248 14 171 4.8 8.0 0.00 0.00 0.00 44 1022.8
20260510133730 13 171 1.6 6.4 0.00 0.00 0.00 47 1022.8
20260510133243 13 171 1.6 4.8 0.00 0.00 0.00 46 1022.8
20260510133012 13 171 0.0 4.8 0.00 0.00 0.00 47 1022.0
20260510132731 13 171 0.0 4.8 0.00 0.00 0.00 45 1022.7
20260510132243 12 171 0.0 3.2 0.00 0.00 0.00 51 1022.7
20260510131736 12 171 0.0 3.2 0.00 0.00 0.00 49 1022.7
20260510131553 12 171 0.0 3.2 0.00 0.00 0.00 51 1022.0
20260510131310 12 171 1.6 3.2 0.00 0.00 0.00 43 1022.8
20260510130730 12 171 1.6 3.2 0.00 0.00 0.00 46 1022.6
20260510130241 12 171 0.0 1.6 0.00 0.00 0.00 51 1022.5
20260510130027 11 171 0.0 0.0 0.00 0.00 0.00 49 1021.7
20260510125725 12 171 0.0 0.0 0.00 0.00 0.00 50 1022.4
20260510125234 12 171 0.0 1.6 0.00 0.00 0.00 52 1022.4
20260510124744 11 171 0.0 3.2 0.00 0.00 0.00 55 1022.3
20260510124521 11 171 0.0 3.2 0.00 0.00 0.00 56 1021.6
20260510124236 11 171 1.6 4.8 0.00 0.00 0.00 57 1022.3
20260510123748 11 171 1.6 4.8 0.00 0.00 0.00 57 1022.2
20260510123230 11 171 3.2 6.4 0.00 0.00 0.00 56 1022.2
20260510123025 10 171 3.2 6.4 0.00 0.00 0.00 55 1021.4
20260510122743 10 171 3.2 6.4 0.00 0.00 0.00 57 1022.2
20260510122226 10 171 0.0 0.0 0.00 0.00 0.00 59 1022.2
20260510121733 9 171 0.0 3.2 0.00 0.00 0.00 58 1022.2
20260510121531 9 171 0.0 3.2 0.00 0.00 0.00 59 1021.4
20260510121246 9 171 1.6 3.2 0.00 0.00 0.00 59 1022.0
20260510120729 8 171 1.6 3.2 0.00 0.00 0.00 58 1022.0
20260510120241 8 171 0.0 3.2 0.00 0.00 0.00 59 1022.0
20260510120031 8 171 0.0 3.2 0.00 0.00 0.00 59 1021.3
20260510115725 8 171 1.6 3.2 0.00 0.00 0.00 58 1021.9
20260510115257 8 171 1.6 3.2 0.00 0.00 0.00 58 1021.9
20260510114749 8 171 1.6 3.2 0.00 0.00 0.00 58 1021.7
20260510114518 8 171 1.6 3.2 0.00 0.00 0.00 58 1021.0
20260510114234 8 171 1.6 3.2 0.00 0.00 0.00 58 1021.7
20260510113738 8 171 1.6 3.2 0.00 0.00 0.00 58 1021.8
20260510113250 8 171 1.6 3.2 0.00 0.00 0.00 58 1021.8
20260510113025 8 171 0.0 1.6 0.00 0.00 0.00 58 1021.1
20260510112734 8 171 0.0 0.0 0.00 0.00 0.00 58 1021.8
20260510112246 8 171 0.0 4.8 0.00 0.00 0.00 58 1021.7
20260510111729 8 171 0.0 4.8 0.00 0.00 0.00 59 1021.9
20260510111540 8 171 3.2 4.8 0.00 0.00 0.00 58 1021.2
20260510111241 8 327 0.0 0.0 0.00 0.00 0.00 59 1021.8
20260510110723 8 327 0.0 0.0 0.00 0.00 0.00 58 1021.7
20260510110233 8 327 0.0 0.0 0.00 0.00 0.00 59 1021.7
20260510110032 7 327 0.0 0.0 0.00 0.00 0.00 58 1020.9
20260510105757 8 327 0.0 0.0 0.00 0.00 0.00 57 1021.6
20260510105248 8 327 0.0 4.8 0.00 0.00 0.00 57 1021.6
20260510104730 8 327 1.6 6.4 0.00 0.00 0.00 57 1021.5
20260510104514 7 327 1.6 8.0 0.00 0.00 0.00 57 1020.8
20260510104304 7 327 4.8 8.0 0.00 0.00 0.00 58 1021.6
20260510103726 8 303 6.4 8.0 0.00 0.00 0.00 59 1021.5
20260510103237 8 297 4.8 8.0 0.00 0.00 0.00 59 1021.5
20260510103054 7 286 3.2 6.4 0.00 0.00 0.00 59 1020.8
20260510102745 7 275 4.8 6.4 0.00 0.00 0.00 59 1021.5
20260510102227 7 284 4.8 6.4 0.00 0.00 0.00 57 1021.3
20260510101740 8 300 6.4 6.4 0.00 0.00 0.00 56 1021.2
20260510101603 7 298 4.8 6.4 0.00 0.00 0.00 56 1020.5
20260510101255 8 285 3.2 4.8 0.00 0.00 0.00 54 1021.3
20260510100804 8 355 3.2 4.8 0.00 0.00 0.00 55 1021.3
20260510100225 8 355 3.2 4.8 0.00 0.00 0.00 57 1021.2
20260510100018 7 355 1.6 6.4 0.00 0.00 0.00 58 1020.3
20260510095736 8 355 3.2 6.4 0.00 0.00 0.00 53 1020.9
20260510095242 8 355 4.8 6.4 0.00 0.00 0.00 52 1020.7
20260510094726 8 355 4.8 8.0 0.00 0.00 0.00 51 1020.8
20260510094520 8 355 4.8 8.0 0.00 0.00 0.00 51 1019.9
20260510094237 8 355 6.4 8.0 0.00 0.00 0.00 51 1020.5
20260510093748 8 360 6.4 8.0 0.00 0.00 0.00 50 1020.4
20260510093230 8 5 6.4 8.0 0.00 0.00 0.00 50 1020.4
20260510093024 8 5 4.8 8.0 0.00 0.00 0.00 49 1019.6
20260510092743 8 19 4.8 6.4 0.00 0.00 0.00 49 1020.4
20260510092235 8 34 4.8 6.4 0.00 0.00 0.00 49 1020.4
20260510091747 8 40 3.2 6.4 0.00 0.00 0.00 49 1020.4
20260510091509 8 40 3.2 8.0 0.00 0.00 0.00 49 1019.5
20260510091227 8 32 4.8 9.7 0.00 0.00 0.00 50 1020.3
20260510090737 8 32 6.4 12.9 0.00 0.00 0.00 49 1020.2
20260510090222 8 22 6.4 12.9 0.00 0.00 0.00 48 1020.0
20260510090008 8 45 8.0 12.9 0.00 0.00 0.00 48 1019.1
20260510085755 8 355 8.0 12.9 0.00 0.00 0.00 48 1019.9
20260510085246 8 24 6.4 9.7 0.00 0.00 0.00 47 1020.0
20260510084727 8 24 6.4 9.7 0.00 0.00 0.00 47 1020.0
20260510084558 8 32 4.8 8.0 0.00 0.00 0.00 47 1019.2
20260510084241 8 32 4.8 6.4 0.00 0.00 0.00 47 1020.0
20260510083722 9 19 4.8 6.4 0.00 0.00 0.00 46 1020.1
20260510083309 9 35 4.8 6.4 0.00 0.00 0.00 45 1020.2
20260510083020 8 5 3.2 6.4 0.00 0.00 0.00 46 1019.3
20260510082733 9 355 3.2 4.8 0.00 0.00 0.00 45 1020.0
20260510082243 9 355 3.2 3.2 0.00 0.00 0.00 45 1020.0
20260510081727 9 355 1.6 4.8 0.00 0.00 0.00 45 1020.0
20260510081532 9 355 1.6 4.8 0.00 0.00 0.00 45 1019.1
20260510081241 10 355 3.2 4.8 0.00 0.00 0.00 44 1020.0
20260510080722 10 355 3.2 6.4 0.00 0.00 0.00 45 1020.0
20260510080250 10 355 3.2 6.4 0.00 0.00 0.00 44 1020.0
20260510080002 10 355 3.2 6.4 0.00 0.00 0.00 44 1019.2
20260510075738 10 340 4.8 6.4 0.00 0.00 0.00 44 1020.0
20260510075249 10 340 4.8 6.4 0.00 0.00 0.00 44 1020.0
20260510074732 10 5 3.2 4.8 0.00 0.00 0.00 44 1019.9
20260510074512 10 5 1.6 8.0 0.00 0.00 0.00 44 1019.0
20260510074245 10 5 3.2 8.0 0.00 0.00 0.00 44 1019.8
20260510073725 10 5 4.8 8.0 0.00 0.00 0.00 44 1019.6
20260510073238 10 348 3.2 6.4 0.00 0.00 0.00 43 1019.7
20260510073015 10 349 1.6 4.8 0.00 0.00 0.00 43 1018.8
20260510072749 11 13 3.2 4.8 0.00 0.00 0.00 43 1019.5
20260510072226 11 13 3.2 4.8 0.00 0.00 0.00 42 1019.5
20260510071738 11 19 4.8 8.0 0.00 0.00 0.00 42 1019.5
20260510071519 11 19 3.2 8.0 0.00 0.00 0.00 42 1018.6
20260510071251 11 19 4.8 8.0 0.00 0.00 0.00 41 1019.4
20260510070741 11 12 4.8 4.8 0.00 0.00 0.00 41 1019.5
20260510070225 11 12 3.2 12.9 0.00 0.00 0.00 41 1019.4
20260510070056 11 12 3.2 12.9 0.00 0.00 0.00 41 1018.5
20260510065755 11 10 6.4 12.9 0.00 0.00 0.00 41 1019.4
20260510065245 11 5 6.4 14.5 0.00 0.00 0.00 41 1019.3
20260510064723 12 18 9.7 14.5 0.00 0.00 0.00 41 1019.2
20260510064531 11 9 6.4 14.5 0.00 0.00 0.00 41 1018.3
20260510064235 12 360 9.7 17.7 0.00 0.00 0.00 40 1019.2
20260510063806 12 360 11.3 19.3 0.00 0.00 0.00 40 1019.0
20260510063227 12 9 12.9 19.3 0.00 0.00 0.00 40 1019.1
20260510063010 12 351 14.5 19.3 0.00 0.00 0.00 39 1018.1
20260510062740 12 12 12.9 17.7 0.00 0.00 0.00 39 1019.1
20260510062223 12 355 12.9 16.1 0.00 0.00 0.00 39 1019.0
20260510061734 12 360 12.9 19.3 0.00 0.00 0.00 39 1019.1
20260510061556 12 344 11.3 19.3 0.00 0.00 0.00 39 1018.2
20260510061241 12 13 14.5 19.3 0.00 0.00 0.00 39 1019.0
20260510060750 12 5 12.9 16.1 0.00 0.00 0.00 40 1018.9
20260510060301 13 347 11.3 16.1 0.00 0.00 0.00 40 1018.6
20260510060008 12 360 9.7 16.1 0.00 0.00 0.00 40 1017.6
20260510055722 13 5 12.9 16.1 0.00 0.00 0.00 39 1018.5
20260510055234 13 5 12.9 16.1 0.00 0.00 0.00 39 1018.5
20260510054746 13 35 11.3 17.7 0.00 0.00 0.00 39 1018.3
20260510054552 13 360 11.3 19.3 0.00 0.00 0.00 39 1017.3
20260510054232 13 14 12.9 19.3 0.00 0.00 0.00 39 1018.0
20260510053741 13 355 14.5 19.3 0.00 0.00 0.00 39 1017.9
20260510053226 13 15 14.5 19.3 0.00 0.00 0.00 38 1017.8
20260510053059 13 12 12.9 19.3 0.00 0.00 0.00 38 1016.9
20260510052738 13 355 12.9 19.3 0.00 0.00 0.00 38 1017.8
20260510052249 13 22 12.9 17.7 0.00 0.00 0.00 38 1017.7
20260510051740 14 9 11.3 17.7 0.00 0.00 0.00 38 1017.5
20260510051546 13 13 11.3 17.7 0.00 0.00 0.00 38 1016.5
20260510051230 14 17 11.3 19.3 0.00 0.00 0.00 37 1017.5
20260510050741 14 5 12.9 19.3 0.00 0.00 0.00 37 1017.5
20260510050249 14 15 14.5 19.3 0.00 0.00 0.00 37 1017.4
20260510050013 14 5 12.9 24.1 0.00 0.00 0.00 37 1016.4
20260510045733 15 5 12.9 24.1 0.00 0.00 0.00 37 1017.4
20260510045244 15 19 14.5 24.1 0.00 0.00 0.00 37 1017.3
20260510044726 15 5 12.9 17.7 0.00 0.00 0.00 37 1017.3
20260510044520 15 17 11.3 17.7 0.00 0.00 0.00 37 1016.3
20260510044240 15 28 12.9 17.7 0.00 0.00 0.00 36 1017.3
20260510043810 15 20 12.9 17.7 0.00 0.00 0.00 36 1017.1
20260510043232 15 9 11.3 22.5 0.00 0.00 0.00 36 1017.0
20260510043100 15 17 9.7 22.5 0.00 0.00 0.00 36 1016.1
20260510042800 15 19 11.3 22.5 0.00 0.00 0.00 36 1017.0
20260510042223 15 9 14.5 25.7 0.00 0.00 0.00 36 1016.9
20260510041735 15 360 19.3 30.6 0.00 0.00 0.00 35 1016.8
20260510041536 15 13 19.3 30.6 0.00 0.00 0.00 35 1015.8
20260510041248 16 13 19.3 25.7 0.00 0.00 0.00 35 1016.6
20260510040739 16 21 16.1 22.5 0.00 0.00 0.00 36 1016.6
20260510040222 16 20 16.1 22.5 0.00 0.00 0.00 35 1016.4
20260510040015 16 28 14.5 25.7 0.00 0.00 0.00 36 1015.5
20260510035734 16 13 14.5 25.7 0.00 0.00 0.00 36 1016.4
20260510035241 16 5 16.1 25.7 0.00 0.00 0.00 35 1016.3
20260510034725 16 31 16.1 24.1 0.00 0.00 0.00 36 1016.3
20260510034509 16 11 16.1 24.1 0.00 0.00 0.00 35 1015.2
20260510034238 16 9 16.1 24.1 0.00 0.00 0.00 35 1016.2
20260510033748 16 25 16.1 22.5 0.00 0.00 0.00 35 1016.0
20260510033233 16 9 12.9 24.1 0.00 0.00 0.00 35 1015.9
20260510033012 16 360 16.1 24.1 0.00 0.00 0.00 35 1014.9
20260510032743 17 360 14.5 24.1 0.00 0.00 0.00 36 1015.8
20260510032226 17 360 14.5 20.9 0.00 0.00 0.00 36 1015.8
20260510031738 17 17 12.9 24.1 0.00 0.00 0.00 35 1015.7
20260510031517 16 37 14.5 25.7 0.00 0.00 0.00 35 1014.7
20260510031223 17 20 17.7 25.7 0.00 0.00 0.00 35 1015.6
20260510030728 17 360 17.7 25.7 0.00 0.00 0.00 35 1015.4
20260510030241 17 355 14.5 20.9 0.00 0.00 0.00 36 1015.3
20260510030018 17 26 14.5 20.9 0.00 0.00 0.00 35 1014.2
20260510025726 17 5 11.3 16.1 0.00 0.00 0.00 36 1015.2
20260510025237 17 12 6.4 14.5 0.00 0.00 0.00 36 1015.1
20260510024747 17 9 8.0 16.1 0.00 0.00 0.00 35 1015.0
20260510024532 17 28 8.0 17.7 0.00 0.00 0.00 35 1014.0
20260510024233 17 17 11.3 17.7 0.00 0.00 0.00 35 1014.9
20260510023744 17 355 11.3 17.7 0.00 0.00 0.00 34 1014.8
20260510023225 18 360 12.9 20.9 0.00 0.00 0.00 34 1014.7
20260510023022 17 360 12.9 20.9 0.00 0.00 0.00 34 1013.6
20260510022733 18 360 14.5 20.9 0.00 0.00 0.00 34 1014.6
20260510022306 18 360 12.9 19.3 0.00 0.00 0.00 33 1014.4
20260510021724 18 360 14.5 19.3 0.00 0.00 0.00 33 1014.3
20260510021502 18 355 12.9 20.9 0.00 0.00 0.00 33 1013.2
20260510021235 18 13 14.5 20.9 0.00 0.00 0.00 33 1014.2
20260510020746 19 11 16.1 25.7 0.00 0.00 0.00 33 1014.1
20260510020231 19 5 14.5 25.7 0.00 0.00 0.00 33 1014.0
20260510020004 18 355 17.7 25.7 0.00 0.00 0.00 33 1012.9
20260510015741 19 346 17.7 24.1 0.00 0.00 0.00 33 1013.9
20260510015248 19 18 17.7 22.5 0.00 0.00 0.00 34 1013.7
20260510014729 19 347 17.7 25.7 0.00 0.00 0.00 34 1013.6
20260510014546 19 355 17.7 25.7 0.00 0.00 0.00 35 1012.5
20260510014241 19 360 17.7 25.7 0.00 0.00 0.00 35 1013.5
20260510013752 20 345 16.1 30.6 0.00 0.00 0.00 35 1013.4
20260510013244 20 5 22.5 30.6 0.00 0.00 0.00 35 1013.2
20260510013020 19 360 17.7 25.7 0.00 0.00 0.00 35 1012.1
20260510012726 20 355 16.1 25.7 0.00 0.00 0.00 36 1013.2
20260510012238 20 5 17.7 27.4 0.00 0.00 0.00 37 1013.1
20260510011745 20 355 16.1 27.4 0.00 0.00 0.00 37 1013.0
20260510011556 20 27 17.7 27.4 0.00 0.00 0.00 37 1011.9
20260510011259 20 5 16.1 20.9 0.00 0.00 0.00 37 1012.9
20260510010747 20 5 14.5 22.5 0.00 0.00 0.00 37 1012.8
20260510010232 20 355 16.1 22.5 0.00 0.00 0.00 37 1012.8
20260510010040 20 5 14.5 22.5 0.00 0.00 0.00 37 1011.7
20260510005744 20 17 16.1 25.7 0.00 0.00 0.00 37 1012.8
20260510005227 20 13 19.3 25.7 0.00 0.00 0.00 37 1012.8
20260510004739 20 30 16.1 27.4 0.00 0.00 0.00 37 1012.6
20260510004544 20 360 17.7 27.4 0.00 0.00 0.00 37 1011.4
20260510004247 20 9 19.3 27.4 0.00 0.00 0.00 38 1012.4
20260510003730 20 40 17.7 24.1 0.00 0.00 0.00 38 1012.4
20260510003240 20 26 16.1 25.7 0.00 0.00 0.00 39 1012.3
20260510003049 20 29 16.1 25.7 0.00 0.00 0.00 39 1011.1
20260510002724 21 5 19.3 29.0 0.00 0.00 0.00 40 1012.2
20260510002235 21 12 17.7 29.0 0.00 0.00 0.00 41 1012.1
20260510001747 21 360 19.3 27.4 0.00 0.00 0.00 42 1012.2
20260510001530 20 343 14.5 20.9 0.00 0.00 0.00 43 1011.1
20260510001239 21 344 16.1 20.9 0.00 0.00 0.00 42 1012.2
20260510000722 21 355 14.5 24.1 0.00 0.00 0.00 43 1012.2
20260510000229 21 355 17.7 27.4 0.00 0.00 0.00 43 1012.2
20260510000041 20 343 14.5 27.4 0.00 0.00 0.00 43 1011.1
20260509235741 21 13 20.9 27.4 0.00 0.00 0.00 42 1012.3
20260509235223 21 355 19.3 27.4 0.00 0.00 0.00 42 1012.3
20260509234737 21 340 19.3 30.6 0.00 0.00 0.00 42 1012.3
20260509234546 20 5 16.1 32.2 0.00 0.00 0.00 42 1011.2
20260509234249 21 11 19.3 32.2 0.00 0.00 0.00 42 1012.3
20260509233732 21 27 24.1 32.2 0.00 0.00 0.00 42 1012.2
20260509233242 21 355 22.5 32.2 0.00 0.00 0.00 42 1012.1
20260509233048 21 355 22.5 32.2 0.00 0.00 0.00 43 1011.0
20260509232725 21 340 20.9 33.8 0.00 0.00 0.00 43 1012.2
20260509232234 21 355 19.3 38.6 0.00 0.00 0.00 43 1012.2
20260509231804 21 350 27.4 38.6 0.00 0.00 0.00 42 1012.0
20260509231532 21 17 27.4 38.6 0.00 0.00 0.00 42 1010.8
20260509231230 21 325 24.1 38.6 0.00 0.00 0.00 42 1012.0
20260509230737 21 5 30.6 38.6 0.00 0.00 0.00 42 1011.8
20260509230308 21 355 24.1 37.0 0.00 0.00 0.00 42 1011.9
20260509230012 21 13 27.4 37.0 0.00 0.00 0.00 42 1010.7
20260509225729 21 360 27.4 41.8 0.00 0.00 0.00 43 1011.8
20260509225257 21 355 29.0 45.1 0.00 0.00 0.00 43 1011.8
20260509224722 21 346 32.2 45.1 0.00 0.00 0.00 42 1011.8
20260509224547 21 349 29.0 41.8 0.00 0.00 0.00 43 1010.5
20260509224234 22 355 27.4 41.8 0.00 0.00 0.00 42 1011.7
20260509223746 22 360 27.4 38.6 0.00 0.00 0.00 42 1011.6
20260509223231 22 15 19.3 35.4 0.00 0.00 0.00 42 1011.6
20260509223052 22 348 20.9 35.4 0.00 0.00 0.00 41 1010.5
20260509222803 22 360 25.7 35.4 0.00 0.00 0.00 41 1011.6
20260509222224 22 355 24.1 33.8 0.00 0.00 0.00 41 1011.6
20260509221753 23 339 24.1 38.6 0.00 0.00 0.00 40 1011.6
20260509221510 22 24 24.1 38.6 0.00 0.00 0.00 40 1010.4
20260509221245 22 9 24.1 38.6 0.00 0.00 0.00 42 1011.6
20260509220734 22 355 27.4 37.0 0.00 0.00 0.00 41 1011.5
20260509220245 22 360 22.5 38.6 0.00 0.00 0.00 41 1011.4
20260509220029 21 343 22.5 38.6 0.00 0.00 0.00 42 1010.3
20260509215728 22 355 27.4 38.6 0.00 0.00 0.00 41 1011.4
20260509215242 22 34 29.0 38.6 0.00 0.00 0.00 40 1011.4
20260509214721 21 18 29.0 37.0 0.00 0.00 0.00 40 1011.2
20260509214535 21 328 24.1 37.0 0.00 0.00 0.00 40 1010.2
20260509214251 21 355 25.7 37.0 0.00 0.00 0.00 39 1011.3
20260509213733 22 360 22.5 33.8 0.00 0.00 0.00 39 1011.2
20260509213245 22 333 22.5 38.6 0.00 0.00 0.00 39 1011.2
20260509213034 21 355 22.5 38.6 0.00 0.00 0.00 38 1010.0
20260509212728 22 360 27.4 37.0 0.00 0.00 0.00 37 1011.1
20260509212239 22 19 27.4 37.0 0.00 0.00 0.00 37 1011.0
20260509211723 22 15 29.0 45.1 0.00 0.00 0.00 37 1010.9
20260509211546 22 344 27.4 45.1 0.00 0.00 0.00 37 1009.7
20260509211237 22 355 33.8 45.1 0.00 0.00 0.00 37 1010.8
20260509210802 22 9 27.4 38.6 0.00 0.00 0.00 37 1010.8
20260509210223 22 346 25.7 49.9 0.00 0.00 0.00 38 1010.8
20260509210029 22 345 27.4 49.9 0.00 0.00 0.00 38 1009.5
20260509205736 22 355 32.2 49.9 0.00 0.00 0.00 37 1010.6
20260509205247 23 355 35.4 48.3 0.00 0.00 0.00 36 1010.4
20260509204730 23 360 30.6 38.6 0.00 0.00 0.00 34 1010.3
20260509204532 23 348 30.6 38.6 0.00 0.00 0.00 34 1009.1
20260509204244 24 347 30.6 40.2 0.00 0.00 0.00 32 1010.2
20260509203727 24 5 27.4 40.2 0.00 0.00 0.00 31 1010.2
20260509203240 25 13 22.5 35.4 0.00 0.00 0.00 30 1010.0
20260509203032 25 39 24.1 35.4 0.00 0.00 0.00 29 1009.0
20260509202747 25 342 24.1 35.4 0.00 0.00 0.00 28 1010.1
20260509202231 26 360 20.9 32.2 0.00 0.00 0.00 29 1009.9
20260509201740 26 355 25.7 35.4 0.00 0.00 0.00 27 1009.9
20260509201526 25 10 19.3 35.4 0.00 0.00 0.00 28 1008.7
20260509201224 26 15 27.4 35.4 0.00 0.00 0.00 26 1009.8
20260509200735 26 319 12.9 29.0 0.00 0.00 0.00 27 1009.7
20260509200308 26 360 16.1 29.0 0.00 0.00 0.00 24 1009.8
20260509200012 26 339 14.5 29.0 0.00 0.00 0.00 27 1008.6
20260509195730 26 325 6.4 27.4 0.00 0.00 0.00 26 1009.8
20260509195234 26 355 16.1 30.6 0.00 0.00 0.00 27 1009.8